RYR4822 EKBI-EGSS

Flight info

Callsign RYR4822
Flight time 1h 18m
Altitude 34000
Route BAMPI DCT UPGAS DCT TIPAN DCT WECOW DCT BINBO DCT AKOKO N866 KUBAX Z150 MEGEL
Aircraft B738/M-SDGIJ1LRWY/SB1

Departure

Time 2026-05-04 12:23
Airport Billund Airport (EKBI)

Arrival

Time 2026-05-04 13:41
Airport London Stansted Airport (EGSS)
Time Latitude Longitude Altitude Speed Heading
2026-05-04 11:52 55.74535 9.14943 235 ft 0 kts 357°
2026-05-04 12:12 55.74530 9.14944 235 ft 2 kts 358°
2026-05-04 12:13 55.74515 9.14941 235 ft 2 kts 12°
2026-05-04 12:14 55.74448 9.14816 234 ft 2 kts 82°
2026-05-04 12:15 55.74446 9.14798 233 ft 0 kts 89°
2026-05-04 12:17 55.74447 9.14829 234 ft 7 kts 88°
2026-05-04 12:17 55.74440 9.14939 234 ft 8 kts 117°
2026-05-04 12:17 55.74403 9.14975 234 ft 7 kts 175°
2026-05-04 12:17 55.74306 9.14985 233 ft 17 kts 177°
2026-05-04 12:18 55.74206 9.15023 232 ft 8 kts 131°
2026-05-04 12:18 55.74194 9.15094 232 ft 8 kts 89°
2026-05-04 12:18 55.74198 9.15271 232 ft 16 kts 87°
2026-05-04 12:18 55.74205 9.15496 232 ft 22 kts 86°
2026-05-04 12:19 55.74215 9.15776 234 ft 22 kts 87°
2026-05-04 12:19 55.74223 9.16038 236 ft 20 kts 86°
2026-05-04 12:19 55.74233 9.16332 239 ft 28 kts 86°
2026-05-04 12:19 55.74246 9.16719 243 ft 32 kts 86°
2026-05-04 12:20 55.74259 9.17108 245 ft 30 kts 87°
2026-05-04 12:20 55.74269 9.17459 247 ft 27 kts 86°
2026-05-04 12:20 55.74280 9.17784 249 ft 25 kts 86°
2026-05-04 12:20 55.74275 9.18069 252 ft 21 kts 121°
2026-05-04 12:21 55.74224 9.18139 253 ft 4 kts 167°
2026-05-04 12:21 55.74192 9.18146 253 ft 7 kts 174°
2026-05-04 12:21 55.74127 9.18106 252 ft 13 kts 240°
2026-05-04 12:21 55.74120 9.18037 252 ft 0 kts 268°
2026-05-04 12:22 55.74120 9.18011 251 ft 9 kts 268°
2026-05-04 12:22 55.74106 9.17493 247 ft 76 kts 266°
2026-05-04 12:22 55.74059 9.16170 237 ft 135 kts 267°
2026-05-04 12:22 55.74010 9.14236 320 ft 172 kts 268°
2026-05-04 12:23 55.73940 9.12218 1071 ft 163 kts 267°
2026-05-04 12:23 55.73857 9.10230 1647 ft 167 kts 269°
2026-05-04 12:23 55.73881 9.08182 2182 ft 168 kts 287°
2026-05-04 12:23 55.74521 9.06531 2744 ft 166 kts 322°
2026-05-04 12:24 55.75483 9.05379 3152 ft 173 kts 324°
2026-05-04 12:24 55.76506 9.04097 3533 ft 185 kts 322°
2026-05-04 12:24 55.77561 9.02715 3915 ft 196 kts 322°
2026-05-04 12:24 55.78682 9.01245 4297 ft 207 kts 322°
2026-05-04 12:25 55.79769 8.99470 4583 ft 222 kts 302°
2026-05-04 12:25 55.80226 8.96838 5034 ft 230 kts 275°
2026-05-04 12:25 55.80248 8.93990 5672 ft 231 kts 271°
2026-05-04 12:25 55.80268 8.91172 6306 ft 232 kts 273°
2026-05-04 12:26 55.80341 8.88308 6931 ft 234 kts 274°
2026-05-04 12:26 55.80441 8.85379 7483 ft 242 kts 274°
2026-05-04 12:26 55.80552 8.82310 7898 ft 256 kts 274°
2026-05-04 12:26 55.80666 8.79137 8540 ft 261 kts 274°
2026-05-04 12:27 55.80778 8.75963 9244 ft 262 kts 274°
2026-05-04 12:27 55.80888 8.72754 9936 ft 265 kts 274°
2026-05-04 12:27 55.81004 8.69446 10483 ft 275 kts 274°
2026-05-04 12:27 55.81139 8.65957 10865 ft 289 kts 275°
2026-05-04 12:28 55.81382 8.62309 11256 ft 303 kts 278°
2026-05-04 12:28 55.81700 8.58527 11590 ft 319 kts 278°
2026-05-04 12:28 55.82043 8.54618 12326 ft 322 kts 278°
2026-05-04 12:28 55.82377 8.50728 13082 ft 323 kts 278°
2026-05-04 12:29 55.82708 8.46736 13829 ft 326 kts 278°
2026-05-04 12:29 55.83032 8.42762 14552 ft 329 kts 278°
2026-05-04 12:29 55.83351 8.38766 15275 ft 332 kts 277°
2026-05-04 12:29 55.83673 8.34700 15984 ft 336 kts 276°
2026-05-04 12:30 55.83939 8.30580 16722 ft 337 kts 273°
2026-05-04 12:30 55.83939 8.26432 17338 ft 341 kts 264°
2026-05-04 12:30 55.83539 8.22282 18039 ft 344 kts 257°
2026-05-04 12:30 55.82898 8.18168 18729 ft 346 kts 254°
2026-05-04 12:31 55.82188 8.14096 19283 ft 351 kts 253°
2026-05-04 12:31 55.81460 8.09944 19894 ft 355 kts 254°
2026-05-04 12:31 55.80730 8.05739 20466 ft 359 kts 254°
2026-05-04 12:31 55.80000 8.01496 21027 ft 363 kts 254°
2026-05-04 12:32 55.79270 7.97229 21605 ft 366 kts 254°
2026-05-04 12:32 55.77788 7.88551 22663 ft 373 kts 254°
2026-05-04 12:32 55.77039 7.84172 23218 ft 375 kts 254°
2026-05-04 12:33 55.76273 7.79695 23675 ft 380 kts 254°
2026-05-04 12:33 55.75500 7.75195 24162 ft 384 kts 255°
2026-05-04 12:33 55.74723 7.70684 24586 ft 388 kts 255°
2026-05-04 12:33 55.73929 7.66092 25025 ft 392 kts 255°
2026-05-04 12:34 55.73126 7.61456 25459 ft 396 kts 255°
2026-05-04 12:34 55.72326 7.56844 25847 ft 401 kts 255°
2026-05-04 12:34 55.71501 7.52097 26301 ft 403 kts 255°
2026-05-04 12:34 55.70674 7.47354 26684 ft 408 kts 255°
2026-05-04 12:35 55.69836 7.42556 27084 ft 411 kts 255°
2026-05-04 12:35 55.68984 7.37694 27485 ft 415 kts 255°
2026-05-04 12:35 55.68129 7.32825 27839 ft 419 kts 255°
2026-05-04 12:35 55.67260 7.27893 28204 ft 423 kts 255°
2026-05-04 12:36 55.66384 7.22937 28603 ft 426 kts 255°
2026-05-04 12:36 55.65492 7.17904 28992 ft 429 kts 255°
2026-05-04 12:36 55.64593 7.12846 29313 ft 433 kts 255°
2026-05-04 12:36 55.63685 7.07747 29680 ft 436 kts 255°
2026-05-04 12:37 55.62764 7.02600 30191 ft 435 kts 255°
2026-05-04 12:37 55.61855 6.97534 30635 ft 436 kts 255°
2026-05-04 12:37 55.60942 6.92459 31055 ft 436 kts 255°
2026-05-04 12:37 55.60028 6.87392 31548 ft 434 kts 255°
2026-05-04 12:38 55.59111 6.82323 31994 ft 433 kts 255°
2026-05-04 12:38 55.58192 6.77256 32402 ft 433 kts 255°
2026-05-04 12:38 55.57279 6.72237 32868 ft 430 kts 255°
2026-05-04 12:38 55.56364 6.67218 33270 ft 429 kts 255°
2026-05-04 12:39 55.55453 6.62226 33626 ft 429 kts 254°
2026-05-04 12:39 55.54543 6.57252 33971 ft 428 kts 255°
2026-05-04 12:39 55.53628 6.52266 33997 ft 431 kts 254°
2026-05-04 12:40 55.51782 6.42258 34007 ft 427 kts 254°
2026-05-04 12:40 55.49932 6.32284 34000 ft 429 kts 253°
2026-05-04 12:41 55.48071 6.22300 34005 ft 428 kts 253°
2026-05-04 12:41 55.46196 6.12301 33996 ft 430 kts 253°
2026-05-04 12:42 55.44323 6.02364 34000 ft 430 kts 253°
2026-05-04 12:42 55.42441 5.92427 34005 ft 431 kts 253°
2026-05-04 12:43 55.40542 5.82450 34007 ft 432 kts 253°
2026-05-04 12:43 55.38634 5.72480 34002 ft 433 kts 253°
2026-05-04 12:44 55.36699 5.62418 34006 ft 435 kts 253°
2026-05-04 12:44 55.34762 5.52404 34003 ft 433 kts 253°
2026-05-04 12:45 55.32812 5.42380 34006 ft 435 kts 253°
2026-05-04 12:45 55.30851 5.32338 34007 ft 437 kts 252°
2026-05-04 12:46 55.28870 5.22255 34008 ft 439 kts 252°
2026-05-04 12:46 55.26874 5.12188 34010 ft 440 kts 251°
2026-05-04 12:47 55.24079 5.02586 34010 ft 447 kts 233°
2026-05-04 12:47 55.21963 4.98650 34011 ft 448 kts 222°
2026-05-04 12:47 55.19443 4.95388 34011 ft 449 kts 213°
2026-05-04 12:48 55.14078 4.89950 34011 ft 450 kts 209°
2026-05-04 12:48 55.08562 4.84817 34012 ft 451 kts 208°
2026-05-04 12:49 55.03041 4.79741 34015 ft 450 kts 208°
2026-05-04 12:49 54.97527 4.74651 34020 ft 449 kts 208°
2026-05-04 12:50 54.92028 4.69560 34019 ft 450 kts 209°
2026-05-04 12:50 54.86530 4.64447 34023 ft 449 kts 209°
2026-05-04 12:51 54.81016 4.59345 34024 ft 448 kts 209°
2026-05-04 12:51 54.75545 4.54309 34017 ft 448 kts 210°
2026-05-04 12:52 54.70055 4.49268 34019 ft 445 kts 210°
2026-05-04 12:52 54.64606 4.44274 34016 ft 446 kts 210°
2026-05-04 12:53 54.59185 4.39321 34017 ft 442 kts 210°
2026-05-04 12:53 54.53719 4.34340 34018 ft 442 kts 209°
2026-05-04 12:54 54.48324 4.29436 34021 ft 443 kts 209°
2026-05-04 12:54 54.42932 4.24553 34019 ft 436 kts 209°
2026-05-04 12:55 54.37569 4.19710 34022 ft 437 kts 209°
2026-05-04 12:55 54.32226 4.14896 34020 ft 436 kts 209°
2026-05-04 12:56 54.26828 4.10047 34023 ft 437 kts 209°
2026-05-04 12:56 54.21493 4.05269 34022 ft 433 kts 208°
2026-05-04 12:57 54.16176 4.00524 34031 ft 433 kts 208°
2026-05-04 12:57 54.10865 3.95799 34028 ft 432 kts 208°
2026-05-04 12:58 54.05524 3.91060 34023 ft 434 kts 208°
2026-05-04 12:58 54.00190 3.86342 34028 ft 434 kts 208°
2026-05-04 12:59 53.94823 3.81609 34030 ft 435 kts 208°
2026-05-04 12:59 53.89453 3.76886 34035 ft 435 kts 209°
2026-05-04 13:00 53.84105 3.72197 34030 ft 434 kts 209°
2026-05-04 13:00 53.78771 3.67534 34027 ft 433 kts 209°
2026-05-04 13:01 53.73444 3.62888 34025 ft 431 kts 209°
2026-05-04 13:01 53.68106 3.58246 34028 ft 434 kts 209°
2026-05-04 13:02 53.62754 3.53603 34026 ft 434 kts 210°
2026-05-04 13:02 53.57410 3.48983 34020 ft 427 kts 210°
2026-05-04 13:03 53.52148 3.44448 34022 ft 431 kts 210°
2026-05-04 13:03 53.46830 3.39875 34020 ft 427 kts 210°
2026-05-04 13:04 53.41573 3.35371 34021 ft 423 kts 210°
2026-05-04 13:04 53.36351 3.30910 34017 ft 421 kts 209°
2026-05-04 13:05 53.31126 3.26453 34019 ft 423 kts 209°
2026-05-04 13:05 53.25932 3.22039 34021 ft 418 kts 209°
2026-05-04 13:06 53.20763 3.17657 34015 ft 414 kts 209°
2026-05-04 13:06 53.15625 3.13313 34018 ft 414 kts 209°
2026-05-04 13:07 53.10509 3.08998 34013 ft 412 kts 209°
2026-05-04 13:07 53.05402 3.04702 34013 ft 415 kts 209°
2026-05-04 13:08 53.00271 3.00398 34008 ft 411 kts 209°
2026-05-04 13:08 52.95281 2.95925 34007 ft 410 kts 214°
2026-05-04 13:09 52.90737 2.90249 34010 ft 409 kts 222°
2026-05-04 13:09 52.86503 2.83957 34000 ft 407 kts 224°
2026-05-04 13:10 52.82371 2.77624 33851 ft 406 kts 224°
2026-05-04 13:10 52.80289 2.74448 33420 ft 402 kts 224°
2026-05-04 13:10 52.78259 2.71370 32971 ft 397 kts 223°
2026-05-04 13:10 52.76249 2.68338 32519 ft 393 kts 223°
2026-05-04 13:11 52.74227 2.65303 32019 ft 390 kts 223°
2026-05-04 13:11 52.72229 2.62313 31519 ft 387 kts 223°
2026-05-04 13:11 52.70241 2.59346 31019 ft 384 kts 223°
2026-05-04 13:11 52.68285 2.56433 30503 ft 381 kts 223°
2026-05-04 13:12 52.66329 2.53526 29999 ft 378 kts 223°
2026-05-04 13:12 52.64400 2.50663 29505 ft 374 kts 223°
2026-05-04 13:12 52.62500 2.47847 29026 ft 370 kts 223°
2026-05-04 13:12 52.60582 2.45008 28545 ft 366 kts 223°
2026-05-04 13:13 52.58723 2.42260 28075 ft 362 kts 223°
2026-05-04 13:13 52.56868 2.39520 27602 ft 359 kts 223°
2026-05-04 13:13 52.55019 2.36794 27130 ft 355 kts 223°
2026-05-04 13:13 52.53205 2.34122 26660 ft 351 kts 223°
2026-05-04 13:14 52.51403 2.31469 26196 ft 348 kts 223°
2026-05-04 13:14 52.49618 2.28846 25743 ft 345 kts 223°
2026-05-04 13:14 52.47829 2.26220 25275 ft 341 kts 223°
2026-05-04 13:14 52.46086 2.23665 24827 ft 338 kts 223°
2026-05-04 13:15 52.44360 2.21136 24383 ft 335 kts 223°
2026-05-04 13:15 52.42625 2.18598 23938 ft 331 kts 223°
2026-05-04 13:15 52.40919 2.16105 23492 ft 328 kts 223°
2026-05-04 13:15 52.39240 2.13653 23057 ft 325 kts 223°
2026-05-04 13:16 52.37555 2.11193 22624 ft 322 kts 223°
2026-05-04 13:16 52.35980 2.08673 22204 ft 319 kts 229°
2026-05-04 13:16 52.34644 2.05752 21977 ft 320 kts 239°
2026-05-04 13:16 52.33614 2.02607 21669 ft 317 kts 244°
2026-05-04 13:17 52.32706 1.99302 21261 ft 321 kts 246°
2026-05-04 13:17 52.31831 1.95900 20818 ft 336 kts 247°
2026-05-04 13:17 52.30930 1.92368 20351 ft 338 kts 247°
2026-05-04 13:17 52.30030 1.88868 19890 ft 334 kts 247°
2026-05-04 13:18 52.29127 1.85394 19436 ft 331 kts 247°
2026-05-04 13:18 52.28228 1.81964 18981 ft 327 kts 247°
2026-05-04 13:18 52.27345 1.78614 18539 ft 324 kts 247°
2026-05-04 13:18 52.26456 1.75260 18093 ft 321 kts 247°
2026-05-04 13:19 52.25579 1.71956 17663 ft 319 kts 247°
2026-05-04 13:19 52.24694 1.68632 17223 ft 316 kts 247°
2026-05-04 13:19 52.23827 1.65383 16798 ft 313 kts 247°
2026-05-04 13:19 52.22972 1.62185 16373 ft 310 kts 247°
2026-05-04 13:20 52.22113 1.58978 15952 ft 308 kts 247°
2026-05-04 13:20 52.21268 1.55823 15526 ft 305 kts 247°
2026-05-04 13:20 52.20422 1.52672 15098 ft 302 kts 247°
2026-05-04 13:20 52.19582 1.49547 14689 ft 299 kts 247°
2026-05-04 13:21 52.18755 1.46473 14281 ft 297 kts 247°
2026-05-04 13:21 52.17939 1.43443 13868 ft 295 kts 247°
2026-05-04 13:21 52.17122 1.40412 13475 ft 294 kts 247°
2026-05-04 13:21 52.16279 1.37294 13051 ft 307 kts 247°
2026-05-04 13:22 52.15415 1.34100 12628 ft 309 kts 246°
2026-05-04 13:22 52.14564 1.30962 12374 ft 300 kts 246°
2026-05-04 13:22 52.13728 1.27883 12276 ft 286 kts 246°
2026-05-04 13:22 52.12938 1.24979 12192 ft 280 kts 246°
2026-05-04 13:23 52.12142 1.22036 12085 ft 295 kts 248°
2026-05-04 13:23 52.11455 1.18891 11977 ft 292 kts 253°
2026-05-04 13:23 52.10917 1.15752 11991 ft 288 kts 255°
2026-05-04 13:23 52.10417 1.12567 11985 ft 289 kts 256°
2026-05-04 13:24 52.09919 1.09405 11970 ft 290 kts 256°
2026-05-04 13:24 52.09407 1.06230 11728 ft 290 kts 255°
2026-05-04 13:24 52.08895 1.03120 11486 ft 287 kts 255°
2026-05-04 13:25 52.07857 0.96902 10979 ft 285 kts 255°
2026-05-04 13:25 52.07339 0.93811 10731 ft 284 kts 255°
2026-05-04 13:25 52.06821 0.90728 10483 ft 277 kts 255°
2026-05-04 13:25 52.06326 0.87786 10235 ft 271 kts 255°
2026-05-04 13:26 52.05835 0.84866 9985 ft 265 kts 255°
2026-05-04 13:26 52.05358 0.82007 9741 ft 259 kts 255°
2026-05-04 13:26 52.04894 0.79214 9488 ft 254 kts 255°
2026-05-04 13:26 52.04438 0.76499 9237 ft 249 kts 255°
2026-05-04 13:27 52.04097 0.73771 8992 ft 244 kts 263°
2026-05-04 13:27 52.03946 0.71037 8748 ft 243 kts 266°
2026-05-04 13:27 52.03840 0.68304 8498 ft 243 kts 266°
2026-05-04 13:27 52.03739 0.65570 8246 ft 242 kts 266°
2026-05-04 13:28 52.03639 0.62860 8011 ft 241 kts 266°
2026-05-04 13:28 52.03536 0.60174 7977 ft 239 kts 266°
2026-05-04 13:28 52.03434 0.57523 7763 ft 238 kts 266°
2026-05-04 13:28 52.03326 0.54831 7360 ft 241 kts 266°
2026-05-04 13:29 52.03215 0.52114 7059 ft 239 kts 266°
2026-05-04 13:29 52.03104 0.49454 6714 ft 239 kts 266°
2026-05-04 13:29 52.02992 0.46748 6383 ft 238 kts 266°
2026-05-04 13:29 52.02882 0.44111 6073 ft 237 kts 266°
2026-05-04 13:30 52.02770 0.41437 5747 ft 237 kts 266°
2026-05-04 13:30 52.02658 0.38778 5405 ft 237 kts 266°
2026-05-04 13:30 52.02532 0.36119 5048 ft 238 kts 263°
2026-05-04 13:30 52.02033 0.33575 4680 ft 239 kts 240°
2026-05-04 13:31 52.01077 0.31368 4369 ft 238 kts 232°
2026-05-04 13:31 52.00039 0.29282 4063 ft 237 kts 231°
2026-05-04 13:31 51.98995 0.27215 3710 ft 238 kts 231°
2026-05-04 13:31 51.97942 0.25138 3400 ft 237 kts 231°
2026-05-04 13:32 51.96907 0.23096 3092 ft 237 kts 231°
2026-05-04 13:32 51.95866 0.21042 2990 ft 234 kts 231°
2026-05-04 13:32 51.94826 0.18995 2985 ft 237 kts 231°
2026-05-04 13:32 51.93777 0.16931 2983 ft 236 kts 231°
2026-05-04 13:33 51.92743 0.14897 2986 ft 237 kts 231°
2026-05-04 13:33 51.91693 0.12829 2985 ft 238 kts 231°
2026-05-04 13:33 51.90648 0.10765 2983 ft 237 kts 231°
2026-05-04 13:33 51.89607 0.08700 2985 ft 238 kts 231°
2026-05-04 13:34 51.88554 0.06609 2981 ft 236 kts 231°
2026-05-04 13:34 51.87489 0.04586 2977 ft 237 kts 224°
2026-05-04 13:34 51.86164 0.03061 2897 ft 229 kts 208°
2026-05-04 13:34 51.84794 0.01929 2828 ft 217 kts 206°
2026-05-04 13:35 51.83445 0.00857 2593 ft 214 kts 206°
2026-05-04 13:35 51.80804 -0.01231 2475 ft 214 kts 206°
2026-05-04 13:35 51.79456 -0.02298 2477 ft 214 kts 206°
2026-05-04 13:36 51.78096 -0.03269 2476 ft 214 kts 195°
2026-05-04 13:36 51.76629 -0.03464 2474 ft 213 kts 169°
2026-05-04 13:36 51.75261 -0.02596 2473 ft 210 kts 142°
2026-05-04 13:36 51.74319 -0.00881 2474 ft 206 kts 114°
2026-05-04 13:37 51.73975 0.01335 2470 ft 202 kts 86°
2026-05-04 13:37 51.74317 0.03515 2474 ft 201 kts 59°
2026-05-04 13:37 51.75238 0.05145 2473 ft 199 kts 32°
2026-05-04 13:37 51.76074 0.05767 2475 ft 199 kts 19°
2026-05-04 13:38 51.77705 0.07148 2471 ft 199 kts 41°
2026-05-04 13:38 51.78610 0.08703 2479 ft 183 kts 46°
2026-05-04 13:38 51.79497 0.10110 2466 ft 175 kts 41°
2026-05-04 13:38 51.80377 0.11369 2333 ft 164 kts 41°
2026-05-04 13:39 51.81209 0.12602 2086 ft 160 kts 41°
2026-05-04 13:39 51.81997 0.13783 1905 ft 145 kts 41°
2026-05-04 13:39 51.82721 0.14858 1712 ft 140 kts 41°
2026-05-04 13:39 51.83442 0.15933 1506 ft 139 kts 41°
2026-05-04 13:40 51.84152 0.16994 1320 ft 141 kts 41°
2026-05-04 13:40 51.84877 0.18073 1117 ft 141 kts 41°
2026-05-04 13:40 51.85592 0.19137 940 ft 142 kts 41°
2026-05-04 13:40 51.86312 0.20226 738 ft 142 kts 41°
2026-05-04 13:41 51.87041 0.21304 555 ft 140 kts 40°
2026-05-04 13:41 51.87752 0.22365 366 ft 139 kts 41°
2026-05-04 13:41 51.88296 0.23172 342 ft 47 kts 41°
2026-05-04 13:42 51.88721 0.23796 339 ft 39 kts 45°
2026-05-04 13:42 51.88853 0.24090 339 ft 15 kts 66°
2026-05-04 13:42 51.88885 0.24244 339 ft 13 kts 73°
2026-05-04 13:42 51.88909 0.24371 339 ft 10 kts 72°
2026-05-04 13:43 51.88919 0.24477 339 ft 9 kts 107°
2026-05-04 13:43 51.88918 0.24570 339 ft 7 kts 71°
2026-05-04 13:43 51.88948 0.24629 339 ft 6 kts 46°
2026-05-04 13:43 51.88987 0.24693 340 ft 10 kts 45°
2026-05-04 13:44 51.89039 0.24776 340 ft 9 kts 43°
2026-05-04 13:44 51.89086 0.24847 341 ft 9 kts 41°
2026-05-04 13:44 51.89149 0.24929 342 ft 13 kts 38°
2026-05-04 13:44 51.89213 0.25032 344 ft 11 kts 50°
2026-05-04 13:45 51.89255 0.25134 345 ft 10 kts 58°
2026-05-04 13:45 51.89308 0.25246 346 ft 12 kts 44°
2026-05-04 13:45 51.89365 0.25332 347 ft 10 kts 42°
2026-05-04 13:45 51.89410 0.25406 348 ft 8 kts 61°
2026-05-04 13:46 51.89399 0.25515 348 ft 12 kts 132°
2026-05-04 13:46 51.89339 0.25624 347 ft 7 kts 122°
2026-05-04 13:46 51.89337 0.25681 347 ft 4 kts 62°
2026-05-04 13:46 51.89356 0.25716 348 ft 3 kts 39°
2026-05-04 13:47 51.89367 0.25733 348 ft 0 kts 44°
2026-05-04 13:47 51.89368 0.25735 348 ft 0 kts 44°